LOCATION_NAME,SAMPLE COLLECTION TIME,DOSE EQUIVALENT RATE (nSv/h),GAMMA COUNT RATE R02 (CPM),GAMMA COUNT RATE R03 (CPM),GAMMA COUNT RATE R04 (CPM),GAMMA COUNT RATE R05 (CPM),GAMMA COUNT RATE R06 (CPM),GAMMA COUNT RATE R07 (CPM),GAMMA COUNT RATE R08 (CPM),GAMMA COUNT RATE R09 (CPM),STATUS
LA: BATON ROUGE,05/03/2008 00:14:00,,2430.00,328.00,131.00,152.00,169.00,102.00,29.00,22.00,APPROVED
LA: BATON ROUGE,05/03/2008 01:14:00,,2387.00,319.00,128.00,147.00,166.00,100.00,29.00,22.00,APPROVED
LA: BATON ROUGE,05/03/2008 02:14:00,,2401.00,320.00,128.00,144.00,168.00,101.00,28.00,22.00,APPROVED
LA: BATON ROUGE,05/03/2008 03:14:00,,2427.00,323.00,130.00,147.00,165.00,102.00,29.00,22.00,APPROVED
LA: BATON ROUGE,05/03/2008 04:14:00,,2450.00,326.00,132.00,149.00,168.00,104.00,30.00,22.00,APPROVED
LA: BATON ROUGE,05/03/2008 05:15:00,,2473.00,328.00,130.00,152.00,167.00,104.00,31.00,22.00,APPROVED
LA: BATON ROUGE,05/03/2008 06:15:00,,2475.00,336.00,130.00,150.00,171.00,104.00,29.00,23.00,APPROVED
LA: BATON ROUGE,05/03/2008 07:15:00,,2445.00,328.00,131.00,152.00,169.00,104.00,29.00,22.00,APPROVED
LA: BATON ROUGE,05/03/2008 08:15:00,,2445.00,321.00,127.00,151.00,167.00,101.00,28.00,22.00,APPROVED
LA: BATON ROUGE,05/03/2008 09:15:00,,2444.00,325.00,128.00,151.00,171.00,100.00,29.00,22.00,APPROVED
LA: BATON ROUGE,05/03/2008 10:16:00,,2440.00,326.00,128.00,149.00,168.00,102.00,29.00,22.00,APPROVED
LA: BATON ROUGE,05/03/2008 11:16:00,,2486.00,327.00,131.00,149.00,168.00,104.00,29.00,21.00,APPROVED
LA: BATON ROUGE,05/03/2008 12:16:00,,3086.00,461.00,161.00,213.00,207.00,135.00,30.00,33.00,APPROVED
LA: BATON ROUGE,05/03/2008 13:16:00,,3281.00,509.00,180.00,256.00,236.00,157.00,33.00,38.00,APPROVED
LA: BATON ROUGE,05/03/2008 14:16:00,,2718.00,402.00,154.00,205.00,201.00,135.00,29.00,32.00,APPROVED
LA: BATON ROUGE,05/03/2008 15:17:00,,2260.00,312.00,129.00,157.00,165.00,109.00,25.00,24.00,APPROVED
LA: BATON ROUGE,05/03/2008 16:17:00,,2069.00,287.00,120.00,140.00,155.00,101.00,23.00,22.00,APPROVED
LA: BATON ROUGE,05/03/2008 17:17:00,,1966.00,274.00,116.00,137.00,153.00,97.00,25.00,22.00,APPROVED
LA: BATON ROUGE,05/03/2008 18:17:00,,1948.00,274.00,118.00,137.00,157.00,96.00,26.00,22.00,APPROVED
LA: BATON ROUGE,05/03/2008 19:17:00,,1939.00,273.00,116.00,136.00,154.00,98.00,27.00,21.00,APPROVED
LA: BATON ROUGE,05/03/2008 20:18:00,,1930.00,272.00,117.00,135.00,156.00,99.00,28.00,22.00,APPROVED
LA: BATON ROUGE,05/03/2008 21:18:00,,1907.00,272.00,118.00,136.00,152.00,96.00,27.00,21.00,APPROVED
LA: BATON ROUGE,05/03/2008 22:18:00,,1913.00,271.00,118.00,138.00,157.00,95.00,28.00,23.00,APPROVED
LA: BATON ROUGE,05/03/2008 23:18:00,,1905.00,269.00,115.00,138.00,158.00,97.00,28.00,22.00,APPROVED
LA: BATON ROUGE,05/04/2008 00:18:00,,1929.00,280.00,119.00,137.00,159.00,96.00,28.00,22.00,APPROVED
LA: BATON ROUGE,05/04/2008 01:19:00,,1998.00,284.00,120.00,140.00,158.00,100.00,27.00,22.00,APPROVED
LA: BATON ROUGE,05/04/2008 02:19:00,,2044.00,286.00,122.00,139.00,154.00,102.00,26.00,23.00,APPROVED
LA: BATON ROUGE,05/04/2008 03:19:00,,2088.00,289.00,124.00,141.00,162.00,100.00,25.00,22.00,APPROVED
LA: BATON ROUGE,05/04/2008 04:19:00,,2176.00,296.00,122.00,144.00,160.00,104.00,25.00,23.00,APPROVED
LA: BATON ROUGE,05/04/2008 05:19:00,,2256.00,310.00,130.00,149.00,165.00,108.00,24.00,23.00,APPROVED
LA: BATON ROUGE,05/04/2008 06:20:00,,2249.00,308.00,128.00,147.00,167.00,108.00,24.00,23.00,APPROVED
LA: BATON ROUGE,05/04/2008 07:20:00,,2292.00,310.00,129.00,149.00,164.00,107.00,23.00,23.00,APPROVED
LA: BATON ROUGE,05/04/2008 08:20:00,,2323.00,319.00,129.00,151.00,166.00,107.00,23.00,23.00,APPROVED
LA: BATON ROUGE,05/04/2008 09:20:00,,2375.00,323.00,128.00,153.00,168.00,106.00,21.00,23.00,APPROVED
LA: BATON ROUGE,05/04/2008 10:20:00,,2388.00,317.00,131.00,148.00,165.00,108.00,20.00,24.00,APPROVED
LA: BATON ROUGE,05/04/2008 11:20:00,,2429.00,321.00,128.00,149.00,167.00,110.00,19.00,22.00,APPROVED
LA: BATON ROUGE,05/04/2008 12:21:00,,2446.00,320.00,129.00,147.00,165.00,107.00,19.00,22.00,APPROVED
LA: BATON ROUGE,05/04/2008 13:21:00,,2425.00,320.00,130.00,149.00,165.00,110.00,18.00,22.00,APPROVED
LA: BATON ROUGE,05/04/2008 14:21:00,,2364.00,315.00,128.00,147.00,161.00,112.00,19.00,22.00,APPROVED
LA: BATON ROUGE,05/04/2008 15:21:00,,2265.00,308.00,124.00,146.00,166.00,106.00,21.00,22.00,APPROVED
LA: BATON ROUGE,05/04/2008 16:21:00,,2195.00,300.00,125.00,147.00,164.00,105.00,23.00,21.00,APPROVED
LA: BATON ROUGE,05/04/2008 17:22:00,,2107.00,295.00,123.00,143.00,163.00,103.00,24.00,22.00,APPROVED
LA: BATON ROUGE,05/04/2008 18:22:00,,2043.00,289.00,124.00,141.00,161.00,104.00,26.00,22.00,APPROVED
LA: BATON ROUGE,05/04/2008 19:22:00,,2037.00,288.00,122.00,142.00,161.00,104.00,28.00,24.00,APPROVED
LA: BATON ROUGE,05/04/2008 20:22:00,,2003.00,288.00,123.00,144.00,164.00,101.00,27.00,22.00,APPROVED
LA: BATON ROUGE,05/04/2008 21:22:00,,1979.00,281.00,121.00,140.00,162.00,100.00,27.00,22.00,APPROVED
LA: BATON ROUGE,05/04/2008 22:23:00,,1969.00,280.00,120.00,140.00,159.00,99.00,29.00,23.00,APPROVED
LA: BATON ROUGE,05/04/2008 23:23:00,,1966.00,281.00,122.00,137.00,162.00,101.00,27.00,22.00,APPROVED
LA: BATON ROUGE,05/05/2008 00:23:00,,2000.00,283.00,121.00,141.00,159.00,101.00,27.00,21.00,APPROVED
LA: BATON ROUGE,05/05/2008 01:23:00,,2068.00,292.00,123.00,142.00,165.00,101.00,27.00,23.00,APPROVED
LA: BATON ROUGE,05/05/2008 02:23:00,,2129.00,296.00,122.00,142.00,163.00,104.00,26.00,21.00,APPROVED
LA: BATON ROUGE,05/05/2008 03:24:00,,2192.00,302.00,125.00,145.00,164.00,104.00,25.00,21.00,APPROVED
LA: BATON ROUGE,05/05/2008 04:24:00,,2224.00,305.00,126.00,144.00,163.00,105.00,25.00,22.00,APPROVED
LA: BATON ROUGE,05/05/2008 05:24:00,,2260.00,314.00,128.00,149.00,166.00,107.00,24.00,22.00,APPROVED
LA: BATON ROUGE,05/05/2008 06:24:00,,2299.00,313.00,128.00,152.00,167.00,109.00,22.00,24.00,APPROVED
LA: BATON ROUGE,05/05/2008 07:24:00,,2335.00,317.00,130.00,151.00,166.00,107.00,22.00,23.00,APPROVED
LA: BATON ROUGE,05/05/2008 08:25:00,,2383.00,320.00,133.00,154.00,171.00,110.00,21.00,24.00,APPROVED
LA: BATON ROUGE,05/05/2008 09:25:00,,2397.00,323.00,129.00,154.00,167.00,111.00,21.00,23.00,APPROVED
LA: BATON ROUGE,05/05/2008 10:25:00,,2430.00,328.00,131.00,154.00,169.00,111.00,21.00,23.00,APPROVED
LA: BATON ROUGE,05/05/2008 11:25:00,,2449.00,327.00,132.00,153.00,168.00,111.00,20.00,22.00,APPROVED
LA: BATON ROUGE,05/05/2008 12:25:00,,2465.00,330.00,132.00,156.00,170.00,116.00,20.00,23.00,APPROVED
LA: BATON ROUGE,05/05/2008 13:26:00,,2427.00,330.00,133.00,154.00,169.00,112.00,22.00,22.00,APPROVED
LA: BATON ROUGE,05/05/2008 14:26:00,,2323.00,310.00,127.00,153.00,168.00,111.00,21.00,24.00,APPROVED
LA: BATON ROUGE,05/05/2008 15:26:00,,2188.00,300.00,124.00,148.00,160.00,107.00,24.00,22.00,APPROVED
LA: BATON ROUGE,05/05/2008 16:26:00,,2112.00,292.00,127.00,143.00,162.00,104.00,27.00,22.00,APPROVED
LA: BATON ROUGE,05/05/2008 17:26:00,,2066.00,287.00,120.00,139.00,159.00,104.00,25.00,22.00,APPROVED
LA: BATON ROUGE,05/05/2008 19:27:00,,2246.00,310.00,128.00,147.00,166.00,101.00,28.00,22.00,APPROVED
LA: BATON ROUGE,05/05/2008 22:27:00,,2540.00,340.00,132.00,158.00,172.00,107.00,27.00,24.00,APPROVED
LA: BATON ROUGE,05/05/2008 23:28:00,,2556.00,344.00,138.00,160.00,174.00,108.00,29.00,25.00,APPROVED
LA: BATON ROUGE,05/06/2008 00:28:00,,2393.00,326.00,135.00,157.00,171.00,111.00,27.00,24.00,APPROVED
LA: BATON ROUGE,05/06/2008 01:28:00,,2304.00,314.00,128.00,152.00,166.00,108.00,24.00,24.00,APPROVED
LA: BATON ROUGE,05/06/2008 02:28:00,,2287.00,312.00,130.00,151.00,168.00,110.00,23.00,23.00,APPROVED
LA: BATON ROUGE,05/06/2008 03:28:00,,2277.00,314.00,130.00,153.00,170.00,111.00,23.00,23.00,APPROVED
LA: BATON ROUGE,05/06/2008 04:29:00,,2307.00,317.00,132.00,155.00,169.00,111.00,24.00,23.00,APPROVED
LA: BATON ROUGE,05/06/2008 05:29:00,,2319.00,325.00,130.00,156.00,171.00,112.00,23.00,24.00,APPROVED
LA: BATON ROUGE,05/06/2008 06:29:00,,2359.00,337.00,136.00,163.00,174.00,116.00,23.00,25.00,APPROVED
LA: BATON ROUGE,05/06/2008 07:29:00,,2407.00,340.00,135.00,170.00,176.00,117.00,22.00,25.00,APPROVED
LA: BATON ROUGE,05/06/2008 08:29:00,,2433.00,340.00,135.00,166.00,180.00,120.00,23.00,25.00,APPROVED
LA: BATON ROUGE,05/06/2008 09:30:00,,2466.00,349.00,135.00,171.00,181.00,123.00,23.00,26.00,APPROVED
LA: BATON ROUGE,05/06/2008 10:30:00,,2496.00,354.00,140.00,172.00,177.00,126.00,23.00,26.00,APPROVED
LA: BATON ROUGE,05/06/2008 11:30:00,,2527.00,355.00,139.00,177.00,185.00,126.00,22.00,26.00,APPROVED
LA: BATON ROUGE,05/06/2008 12:30:00,,2547.00,366.00,141.00,180.00,186.00,129.00,22.00,28.00,APPROVED
LA: BATON ROUGE,05/06/2008 13:30:00,,2456.00,355.00,137.00,178.00,182.00,123.00,22.00,27.00,APPROVED
LA: BATON ROUGE,05/06/2008 14:27:00,,2341.00,335.00,139.00,170.00,179.00,119.00,25.00,25.00,APPROVED
LA: BATON ROUGE,05/06/2008 15:44:00,,2101.00,289.00,122.00,139.00,162.00,103.00,25.00,23.00,APPROVED
LA: BATON ROUGE,05/06/2008 16:44:00,,2099.00,296.00,126.00,142.00,164.00,104.00,29.00,23.00,APPROVED
LA: BATON ROUGE,05/06/2008 17:44:00,,2286.00,316.00,128.00,150.00,166.00,104.00,31.00,25.00,APPROVED
LA: BATON ROUGE,05/06/2008 18:44:00,,2316.00,320.00,130.00,152.00,170.00,103.00,31.00,22.00,APPROVED
LA: BATON ROUGE,05/06/2008 19:45:00,,2288.00,314.00,128.00,149.00,172.00,103.00,33.00,23.00,APPROVED
LA: BATON ROUGE,05/06/2008 20:45:00,,2254.00,315.00,127.00,146.00,165.00,104.00,31.00,22.00,APPROVED
LA: BATON ROUGE,05/06/2008 21:45:00,,2232.00,314.00,127.00,147.00,169.00,100.00,31.00,22.00,APPROVED
LA: BATON ROUGE,05/06/2008 22:45:00,,2248.00,314.00,126.00,148.00,168.00,101.00,31.00,22.00,APPROVED
LA: BATON ROUGE,05/06/2008 23:45:00,,2308.00,319.00,129.00,150.00,167.00,102.00,32.00,23.00,APPROVED
LA: BATON ROUGE,05/07/2008 00:46:00,,2382.00,327.00,129.00,150.00,167.00,104.00,31.00,22.00,APPROVED
LA: BATON ROUGE,05/07/2008 01:46:00,,2438.00,332.00,132.00,153.00,169.00,104.00,30.00,22.00,APPROVED
LA: BATON ROUGE,05/07/2008 02:46:00,,2501.00,338.00,133.00,152.00,172.00,106.00,29.00,23.00,APPROVED
LA: BATON ROUGE,05/07/2008 03:46:00,,2523.00,339.00,134.00,155.00,172.00,108.00,28.00,24.00,APPROVED
LA: BATON ROUGE,05/07/2008 04:46:00,,2349.00,320.00,131.00,152.00,169.00,108.00,25.00,23.00,APPROVED
LA: BATON ROUGE,05/07/2008 05:47:00,,2296.00,316.00,127.00,153.00,170.00,107.00,26.00,23.00,APPROVED
LA: BATON ROUGE,05/07/2008 06:47:00,,2287.00,317.00,130.00,152.00,167.00,110.00,24.00,23.00,APPROVED
LA: BATON ROUGE,05/07/2008 07:47:00,,2302.00,315.00,131.00,154.00,168.00,113.00,24.00,23.00,APPROVED
LA: BATON ROUGE,05/07/2008 08:47:00,,2334.00,323.00,132.00,158.00,169.00,115.00,24.00,25.00,APPROVED
LA: BATON ROUGE,05/07/2008 09:47:00,,2400.00,343.00,134.00,167.00,176.00,117.00,24.00,25.00,APPROVED
LA: BATON ROUGE,05/07/2008 10:48:00,,2442.00,352.00,135.00,175.00,184.00,122.00,24.00,26.00,APPROVED
LA: BATON ROUGE,05/07/2008 11:48:00,,2456.00,354.00,138.00,177.00,183.00,122.00,25.00,27.00,APPROVED
LA: BATON ROUGE,05/07/2008 12:48:00,,2413.00,343.00,136.00,171.00,182.00,118.00,23.00,26.00,APPROVED
LA: BATON ROUGE,05/07/2008 13:48:00,,2335.00,326.00,135.00,161.00,174.00,114.00,23.00,24.00,APPROVED
LA: BATON ROUGE,05/07/2008 14:48:00,,2188.00,304.00,127.00,154.00,168.00,108.00,24.00,22.00,APPROVED
LA: BATON ROUGE,05/07/2008 15:49:00,,2069.00,297.00,124.00,147.00,165.00,106.00,26.00,23.00,APPROVED
LA: BATON ROUGE,05/07/2008 16:49:00,,2117.00,301.00,124.00,144.00,167.00,103.00,29.00,22.00,APPROVED
LA: BATON ROUGE,05/07/2008 17:49:00,,2257.00,311.00,128.00,150.00,168.00,104.00,31.00,22.00,APPROVED
LA: BATON ROUGE,05/07/2008 18:49:00,,2226.00,311.00,127.00,152.00,166.00,105.00,33.00,23.00,APPROVED
LA: BATON ROUGE,05/07/2008 19:49:00,,2200.00,309.00,126.00,148.00,168.00,100.00,31.00,22.00,APPROVED
LA: BATON ROUGE,05/07/2008 21:50:00,,2190.00,301.00,129.00,148.00,167.00,101.00,34.00,23.00,APPROVED
LA: BATON ROUGE,05/07/2008 22:50:00,,2240.00,308.00,125.00,148.00,171.00,99.00,32.00,23.00,APPROVED
LA: BATON ROUGE,05/07/2008 23:50:00,,2309.00,319.00,129.00,148.00,167.00,102.00,32.00,22.00,APPROVED
LA: BATON ROUGE,05/08/2008 00:50:00,,2383.00,324.00,128.00,147.00,167.00,101.00,30.00,22.00,APPROVED
LA: BATON ROUGE,05/08/2008 01:51:00,,2445.00,329.00,130.00,150.00,168.00,101.00,29.00,23.00,APPROVED
LA: BATON ROUGE,05/08/2008 02:51:00,,2466.00,323.00,132.00,152.00,167.00,105.00,28.00,23.00,APPROVED
LA: BATON ROUGE,05/08/2008 03:51:00,,2498.00,329.00,131.00,146.00,167.00,100.00,28.00,23.00,APPROVED
LA: BATON ROUGE,05/08/2008 04:51:00,,2507.00,324.00,134.00,151.00,169.00,104.00,27.00,22.00,APPROVED
LA: BATON ROUGE,05/08/2008 05:51:00,,2519.00,331.00,132.00,149.00,171.00,103.00,27.00,21.00,APPROVED
LA: BATON ROUGE,05/08/2008 06:52:00,,2509.00,328.00,134.00,148.00,167.00,105.00,27.00,22.00,APPROVED
LA: BATON ROUGE,05/08/2008 07:52:00,,2494.00,328.00,130.00,151.00,169.00,105.00,26.00,22.00,APPROVED
LA: BATON ROUGE,05/08/2008 08:52:00,,2499.00,328.00,131.00,154.00,171.00,105.00,27.00,22.00,APPROVED
LA: BATON ROUGE,05/08/2008 09:52:00,,2487.00,327.00,132.00,150.00,165.00,105.00,27.00,22.00,APPROVED
LA: BATON ROUGE,05/08/2008 10:52:00,,2479.00,328.00,130.00,149.00,168.00,105.00,27.00,22.00,APPROVED
LA: BATON ROUGE,05/08/2008 11:52:00,,2471.00,324.00,131.00,146.00,167.00,104.00,27.00,22.00,APPROVED
LA: BATON ROUGE,05/08/2008 12:53:00,,2469.00,327.00,130.00,148.00,167.00,103.00,27.00,22.00,APPROVED
LA: BATON ROUGE,05/08/2008 13:53:00,,2438.00,321.00,127.00,145.00,168.00,102.00,28.00,22.00,APPROVED
LA: BATON ROUGE,05/08/2008 14:53:00,,2441.00,322.00,127.00,149.00,165.00,103.00,29.00,22.00,APPROVED
LA: BATON ROUGE,05/08/2008 15:53:00,,2421.00,320.00,131.00,146.00,167.00,100.00,28.00,22.00,APPROVED
LA: BATON ROUGE,05/08/2008 17:54:00,,2329.00,316.00,128.00,148.00,168.00,102.00,31.00,23.00,APPROVED
LA: BATON ROUGE,05/08/2008 18:54:00,,2302.00,315.00,128.00,146.00,166.00,103.00,31.00,23.00,APPROVED
LA: BATON ROUGE,05/08/2008 19:54:00,,2244.00,316.00,127.00,151.00,169.00,102.00,31.00,22.00,APPROVED
LA: BATON ROUGE,05/08/2008 20:54:00,,2208.00,313.00,131.00,148.00,168.00,101.00,31.00,23.00,APPROVED
LA: BATON ROUGE,05/08/2008 21:54:00,,2199.00,313.00,129.00,153.00,167.00,102.00,32.00,24.00,APPROVED
LA: BATON ROUGE,05/08/2008 22:55:00,,2229.00,313.00,128.00,146.00,172.00,104.00,33.00,23.00,APPROVED
LA: BATON ROUGE,05/08/2008 23:55:00,,2260.00,315.00,130.00,148.00,170.00,104.00,32.00,22.00,APPROVED
LA: BATON ROUGE,05/09/2008 00:55:00,,2333.00,324.00,131.00,152.00,170.00,104.00,32.00,23.00,APPROVED
LA: BATON ROUGE,05/09/2008 01:55:00,,2414.00,331.00,131.00,155.00,171.00,103.00,31.00,23.00,APPROVED
LA: BATON ROUGE,05/09/2008 02:55:00,,2463.00,334.00,132.00,152.00,170.00,102.00,31.00,23.00,APPROVED
LA: BATON ROUGE,05/09/2008 03:56:00,,2500.00,336.00,133.00,155.00,171.00,105.00,30.00,23.00,APPROVED
LA: BATON ROUGE,05/09/2008 04:56:00,,2528.00,343.00,131.00,157.00,174.00,106.00,29.00,24.00,APPROVED
LA: BATON ROUGE,05/09/2008 05:56:00,,2544.00,341.00,135.00,156.00,173.00,108.00,28.00,23.00,APPROVED
LA: BATON ROUGE,05/09/2008 06:56:00,,2553.00,344.00,135.00,162.00,175.00,110.00,28.00,23.00,APPROVED
LA: BATON ROUGE,05/09/2008 07:56:00,,2575.00,345.00,134.00,160.00,178.00,107.00,29.00,24.00,APPROVED
LA: BATON ROUGE,05/09/2008 08:57:00,,2576.00,345.00,137.00,163.00,176.00,107.00,29.00,25.00,APPROVED
LA: BATON ROUGE,05/09/2008 09:57:00,,2581.00,346.00,135.00,162.00,178.00,110.00,29.00,25.00,APPROVED
LA: BATON ROUGE,05/09/2008 10:57:00,,2571.00,350.00,136.00,162.00,181.00,110.00,29.00,23.00,APPROVED
LA: BATON ROUGE,05/09/2008 11:57:00,,2570.00,351.00,135.00,166.00,178.00,110.00,29.00,25.00,APPROVED
LA: BATON ROUGE,05/09/2008 12:57:00,,2575.00,352.00,137.00,161.00,178.00,109.00,30.00,25.00,APPROVED
LA: BATON ROUGE,05/09/2008 13:58:00,,2550.00,348.00,133.00,165.00,177.00,108.00,31.00,24.00,APPROVED
LA: BATON ROUGE,05/09/2008 14:56:00,,2489.00,339.00,133.00,157.00,176.00,108.00,29.00,24.00,APPROVED
LA: BATON ROUGE,05/09/2008 16:12:00,,2361.00,317.00,127.00,145.00,165.00,100.00,29.00,21.00,APPROVED
LA: BATON ROUGE,05/09/2008 17:12:00,,2303.00,316.00,131.00,152.00,170.00,102.00,32.00,23.00,APPROVED
LA: BATON ROUGE,05/09/2008 18:12:00,,2230.00,313.00,128.00,151.00,169.00,105.00,33.00,23.00,APPROVED
LA: BATON ROUGE,05/09/2008 19:12:00,,2199.00,307.00,125.00,148.00,170.00,101.00,33.00,23.00,APPROVED
LA: BATON ROUGE,05/09/2008 20:13:00,,2174.00,303.00,126.00,145.00,166.00,100.00,32.00,23.00,APPROVED
LA: BATON ROUGE,05/09/2008 21:13:00,,2156.00,301.00,125.00,143.00,167.00,100.00,32.00,23.00,APPROVED
LA: BATON ROUGE,05/09/2008 22:13:00,,2151.00,307.00,126.00,146.00,167.00,102.00,33.00,22.00,APPROVED
LA: BATON ROUGE,05/09/2008 23:13:00,,2181.00,302.00,125.00,147.00,165.00,100.00,34.00,22.00,APPROVED
LA: BATON ROUGE,05/10/2008 00:13:00,,2232.00,308.00,126.00,144.00,167.00,103.00,32.00,22.00,APPROVED
LA: BATON ROUGE,05/10/2008 01:14:00,,2295.00,318.00,132.00,150.00,167.00,103.00,32.00,23.00,APPROVED
LA: BATON ROUGE,05/10/2008 02:14:00,,2374.00,323.00,131.00,148.00,170.00,103.00,33.00,22.00,APPROVED
LA: BATON ROUGE,05/10/2008 03:14:00,,2458.00,328.00,129.00,152.00,172.00,105.00,30.00,23.00,APPROVED
LA: BATON ROUGE,05/10/2008 04:14:00,,2491.00,332.00,133.00,158.00,172.00,106.00,30.00,23.00,APPROVED
LA: BATON ROUGE,05/10/2008 05:14:00,,2514.00,336.00,132.00,156.00,175.00,106.00,29.00,23.00,APPROVED
LA: BATON ROUGE,05/10/2008 06:14:00,,2511.00,335.00,132.00,155.00,174.00,109.00,30.00,24.00,APPROVED
LA: BATON ROUGE,05/10/2008 07:15:00,,2524.00,342.00,133.00,156.00,174.00,110.00,29.00,24.00,APPROVED
LA: BATON ROUGE,05/10/2008 08:15:00,,2526.00,339.00,132.00,156.00,171.00,105.00,28.00,22.00,APPROVED
LA: BATON ROUGE,05/10/2008 09:15:00,,2531.00,336.00,135.00,156.00,171.00,106.00,29.00,23.00,APPROVED
LA: BATON ROUGE,05/10/2008 10:15:00,,2527.00,338.00,136.00,161.00,176.00,107.00,29.00,24.00,APPROVED
LA: BATON ROUGE,05/10/2008 11:15:00,,2536.00,338.00,136.00,158.00,178.00,109.00,31.00,24.00,APPROVED
LA: BATON ROUGE,05/10/2008 12:16:00,,2532.00,346.00,135.00,161.00,174.00,107.00,31.00,25.00,APPROVED
LA: BATON ROUGE,05/10/2008 13:16:00,,2539.00,344.00,134.00,162.00,177.00,108.00,30.00,24.00,APPROVED
LA: BATON ROUGE,05/10/2008 14:16:00,,2499.00,336.00,130.00,161.00,176.00,107.00,29.00,24.00,APPROVED
LA: BATON ROUGE,05/10/2008 15:16:00,,2435.00,333.00,133.00,155.00,174.00,106.00,30.00,25.00,APPROVED
LA: BATON ROUGE,05/10/2008 16:16:00,,2341.00,320.00,129.00,156.00,171.00,103.00,30.00,24.00,APPROVED
LA: BATON ROUGE,05/10/2008 17:17:00,,2299.00,315.00,127.00,151.00,169.00,102.00,31.00,23.00,APPROVED
LA: BATON ROUGE,05/10/2008 18:17:00,,2278.00,315.00,127.00,150.00,168.00,102.00,33.00,23.00,APPROVED
LA: BATON ROUGE,05/10/2008 19:17:00,,2211.00,305.00,131.00,147.00,166.00,103.00,32.00,23.00,APPROVED
LA: BATON ROUGE,05/10/2008 20:17:00,,2187.00,303.00,126.00,147.00,166.00,101.00,32.00,23.00,APPROVED
LA: BATON ROUGE,05/10/2008 21:17:00,,2163.00,303.00,124.00,146.00,166.00,103.00,33.00,23.00,APPROVED
LA: BATON ROUGE,05/10/2008 22:18:00,,2167.00,303.00,128.00,147.00,166.00,99.00,33.00,22.00,APPROVED
LA: BATON ROUGE,05/10/2008 23:18:00,,2210.00,305.00,126.00,148.00,168.00,100.00,32.00,23.00,APPROVED
LA: BATON ROUGE,05/11/2008 00:18:00,,2284.00,317.00,129.00,151.00,170.00,100.00,32.00,23.00,APPROVED
LA: BATON ROUGE,05/11/2008 01:18:00,,2364.00,322.00,130.00,151.00,166.00,102.00,31.00,22.00,APPROVED
LA: BATON ROUGE,05/11/2008 02:18:00,,2418.00,328.00,133.00,151.00,172.00,102.00,31.00,24.00,APPROVED
LA: BATON ROUGE,05/11/2008 03:19:00,,2435.00,331.00,130.00,152.00,171.00,104.00,30.00,22.00,APPROVED
LA: BATON ROUGE,05/11/2008 04:19:00,,2455.00,329.00,133.00,151.00,171.00,105.00,30.00,21.00,APPROVED
LA: BATON ROUGE,05/11/2008 05:19:00,,2454.00,328.00,132.00,154.00,170.00,105.00,30.00,22.00,APPROVED
LA: BATON ROUGE,05/11/2008 06:19:00,,2476.00,330.00,132.00,151.00,170.00,102.00,29.00,22.00,APPROVED
LA: BATON ROUGE,05/11/2008 07:19:00,,2486.00,333.00,136.00,153.00,171.00,106.00,29.00,23.00,APPROVED
LA: BATON ROUGE,05/11/2008 08:20:00,,2528.00,338.00,132.00,159.00,173.00,107.00,30.00,23.00,APPROVED
LA: BATON ROUGE,05/11/2008 09:20:00,,2521.00,345.00,134.00,162.00,176.00,110.00,30.00,24.00,APPROVED
LA: BATON ROUGE,05/11/2008 10:20:00,,2556.00,347.00,133.00,164.00,176.00,109.00,32.00,24.00,APPROVED
LA: BATON ROUGE,05/11/2008 11:20:00,,2562.00,358.00,137.00,166.00,182.00,112.00,33.00,26.00,APPROVED
LA: BATON ROUGE,05/11/2008 12:20:00,,2575.00,356.00,138.00,169.00,180.00,110.00,31.00,25.00,APPROVED
LA: BATON ROUGE,05/11/2008 13:21:00,,2563.00,359.00,138.00,167.00,179.00,113.00,31.00,26.00,APPROVED
LA: BATON ROUGE,05/11/2008 14:21:00,,2554.00,355.00,136.00,166.00,182.00,112.00,31.00,26.00,APPROVED
LA: BATON ROUGE,05/11/2008 15:21:00,,2530.00,350.00,137.00,166.00,179.00,113.00,31.00,25.00,APPROVED
LA: BATON ROUGE,05/11/2008 16:21:00,,2507.00,346.00,137.00,165.00,180.00,109.00,32.00,25.00,APPROVED
LA: BATON ROUGE,05/11/2008 17:21:00,,2483.00,345.00,138.00,164.00,178.00,113.00,31.00,24.00,APPROVED
LA: BATON ROUGE,05/11/2008 19:22:00,,2457.00,345.00,137.00,160.00,173.00,108.00,32.00,24.00,APPROVED
LA: BATON ROUGE,05/11/2008 20:22:00,,2442.00,343.00,137.00,163.00,180.00,109.00,32.00,24.00,APPROVED
LA: BATON ROUGE,05/11/2008 21:22:00,,2426.00,340.00,135.00,160.00,177.00,106.00,33.00,24.00,APPROVED
LA: BATON ROUGE,05/11/2008 22:22:00,,2429.00,342.00,136.00,161.00,177.00,109.00,32.00,24.00,APPROVED
LA: BATON ROUGE,05/11/2008 23:22:00,,2472.00,341.00,138.00,160.00,180.00,108.00,34.00,24.00,APPROVED
LA: BATON ROUGE,05/12/2008 01:23:00,,2519.00,337.00,135.00,160.00,177.00,107.00,31.00,23.00,APPROVED
LA: BATON ROUGE,05/12/2008 02:23:00,,2560.00,348.00,135.00,160.00,174.00,106.00,30.00,22.00,APPROVED
LA: BATON ROUGE,05/12/2008 03:23:00,,2555.00,335.00,135.00,157.00,172.00,107.00,29.00,23.00,APPROVED
LA: BATON ROUGE,05/12/2008 04:23:00,,2401.00,326.00,131.00,153.00,170.00,107.00,27.00,24.00,APPROVED
LA: BATON ROUGE,05/12/2008 05:24:00,,2332.00,317.00,133.00,149.00,166.00,109.00,25.00,22.00,APPROVED
LA: BATON ROUGE,05/12/2008 06:24:00,,2347.00,321.00,131.00,151.00,172.00,110.00,24.00,23.00,APPROVED
LA: BATON ROUGE,05/12/2008 07:24:00,,2389.00,321.00,133.00,154.00,175.00,111.00,23.00,23.00,APPROVED
LA: BATON ROUGE,05/12/2008 08:24:00,,2421.00,325.00,135.00,155.00,171.00,112.00,23.00,22.00,APPROVED
LA: BATON ROUGE,05/12/2008 09:24:00,,2446.00,329.00,133.00,155.00,175.00,115.00,22.00,22.00,APPROVED
LA: BATON ROUGE,05/12/2008 10:25:00,,2504.00,335.00,137.00,159.00,174.00,114.00,20.00,22.00,APPROVED
LA: BATON ROUGE,05/12/2008 11:25:00,,2534.00,338.00,134.00,163.00,175.00,117.00,20.00,24.00,APPROVED
LA: BATON ROUGE,05/12/2008 12:25:00,,2571.00,343.00,137.00,161.00,176.00,117.00,20.00,24.00,APPROVED
LA: BATON ROUGE,05/12/2008 13:25:00,,2523.00,341.00,139.00,164.00,175.00,117.00,21.00,25.00,APPROVED
LA: BATON ROUGE,05/12/2008 14:25:00,,2440.00,336.00,136.00,162.00,180.00,117.00,22.00,24.00,APPROVED
LA: BATON ROUGE,05/12/2008 14:30:00,,2391.00,332.00,145.00,153.00,179.00,124.00,21.00,23.00,APPROVED
LA: BATON ROUGE,05/12/2008 15:46:00,,2251.00,306.00,129.00,147.00,167.00,107.00,24.00,22.00,APPROVED
LA: BATON ROUGE,05/12/2008 16:46:00,,2140.00,300.00,128.00,145.00,166.00,109.00,26.00,22.00,APPROVED
LA: BATON ROUGE,05/12/2008 17:46:00,,2068.00,297.00,127.00,145.00,168.00,108.00,27.00,23.00,APPROVED
LA: BATON ROUGE,05/12/2008 18:46:00,,2244.00,318.00,130.00,152.00,172.00,106.00,30.00,23.00,APPROVED
LA: BATON ROUGE,05/12/2008 19:46:00,,2318.00,322.00,130.00,153.00,172.00,105.00,33.00,24.00,APPROVED
LA: BATON ROUGE,05/12/2008 20:47:00,,2315.00,319.00,130.00,153.00,171.00,103.00,32.00,23.00,APPROVED
LA: BATON ROUGE,05/12/2008 21:47:00,,2304.00,319.00,130.00,151.00,174.00,105.00,32.00,24.00,APPROVED
LA: BATON ROUGE,05/12/2008 22:47:00,,2274.00,321.00,126.00,152.00,172.00,104.00,34.00,22.00,APPROVED
LA: BATON ROUGE,05/12/2008 23:47:00,,2314.00,317.00,128.00,150.00,172.00,104.00,32.00,23.00,APPROVED
LA: BATON ROUGE,05/13/2008 00:47:00,,2381.00,324.00,131.00,153.00,169.00,103.00,32.00,23.00,APPROVED